Northeast Philadelphia, PA

1:17 PM EST on November 20, 2017 (GMT -0500)
Northeast Philadelphia

Weather History for KPNE - November, 2011

Change the Weather History Date:

Thursday, November 3, 2011

  Actual Average Record
Temperature  
Mean Temperature 48 °F -  
Max Temperature 61 °F 57 °F 78 °F (2003)
Min Temperature 35 °F 39 °F 30 °F (1996)
Degree Days  
Heating Degree Days 17    
Moisture  
Dew Point 39 °F    
Average Humidity 78    
Maximum Humidity 93    
Minimum Humidity 50    
Precipitation  
Precipitation 0.00 in - - ()
Sea Level Pressure  
Sea Level Pressure 30.12 in    
Wind  
Wind Speed 2 mph (SW)    
Max Wind Speed 13 mph    
Max Gust Speed 17 mph    
Visibility 8 miles    
Events      
Averages and records for this station are not official NWS values.
T = Trace of Precipitation, MM = Missing Value Source: NWS Daily Summary

Daily Weather History Graph

Daily Weather History Graph

Search for Another Location

Airport or City:

Trip Planner

Search our weather history database for the weather conditions in past years. The results will help you decide how hot, cold, wet, or windy it might be!

Date:

Astronomy

Nov. 03, 2011 Rise Set
Actual Time 7:31 AM EDT 5:55 PM EDT
Civil Twilight 7:02 AM EDT 6:23 PM EDT
Nautical Twilight 6:30 AM EDT 6:55 PM EDT
Astronomical Twilight 5:59 AM EDT 7:27 PM EDT
Moon 2:18 PM EDT (11/3) 12:40 AM EDT (11/3)
Length of Visible Light 11h 20m
Length of Day
10h 24m
First Quarter, 60% of the Moon is Illuminated
Nov 3
First Quarter
Nov 10
Full
Nov 18
Last Quarter
Nov 25
New
Dec 2
First Quarter

Hourly Weather History & Observations

Time (EDT) Temp. Dew Point Humidity Pressure Visibility Wind Dir Wind Speed Gust Speed Precip Events Conditions
12:54 AM 39.0 °F 37.0 °F 93% 30.28 in 8.0 mi Calm Calm - N/A   Clear
1:54 AM 39.0 °F 36.0 °F 89% 30.25 in 10.0 mi Calm Calm - N/A   Clear
2:54 AM 39.0 °F 37.0 °F 93% 30.25 in 8.0 mi Calm Calm - N/A   Clear
3:54 AM 37.9 °F 35.1 °F 89% 30.23 in 8.0 mi Calm Calm - N/A   Clear
4:54 AM 37.4 °F 35.6 °F 93% 30.22 in 5.0 mi Calm Calm - N/A   Clear
5:54 AM 37.0 °F 35.1 °F 93% 30.22 in 4.0 mi Calm Calm - N/A   Clear
6:54 AM 37.0 °F 34.0 °F 89% 30.21 in 5.0 mi Calm Calm - N/A   Clear
7:39 AM 35.6 °F 33.8 °F 93% 30.19 in 2.5 mi Calm Calm - N/A   Clear
7:42 AM 35.6 °F 33.8 °F 93% 30.19 in 2.5 mi Calm Calm - N/A   Clear
7:45 AM 35.6 °F 33.8 °F 93% 30.19 in 3.0 mi Calm Calm - N/A   Clear
7:54 AM 36.0 °F 33.1 °F 89% 30.19 in 5.0 mi Calm Calm - N/A   Clear
8:54 AM 42.1 °F 39.9 °F 92% 30.19 in 4.0 mi Calm Calm - N/A   Clear
9:54 AM 48.9 °F 44.1 °F 83% 30.18 in 6.0 mi SW 6.9 mph - N/A   Haze
10:54 AM 52.0 °F 44.1 °F 74% 30.17 in 9.0 mi SSW 5.8 mph - N/A   Clear
11:54 AM 55.9 °F 43.0 °F 62% 30.15 in 10.0 mi SW 11.5 mph 17.3 mph N/A   Clear
12:54 PM 59.0 °F 43.0 °F 55% 30.11 in 10.0 mi SSW 6.9 mph - N/A   Clear
1:54 PM 60.1 °F 42.1 °F 51% 30.06 in 10.0 mi SW 12.7 mph - N/A   Clear
2:54 PM 61.0 °F 42.1 °F 50% 30.03 in 10.0 mi SW 8.1 mph - N/A   Clear
3:54 PM 61.0 °F 42.1 °F 50% 30.01 in 10.0 mi SSW 9.2 mph 17.3 mph N/A   Clear
4:54 PM 61.0 °F 42.1 °F 50% 30.00 in 10.0 mi SSW 8.1 mph - N/A   Clear
5:54 PM 59.0 °F 42.1 °F 53% 29.99 in 10.0 mi SSW 5.8 mph - N/A   Clear
6:54 PM 55.9 °F 43.0 °F 62% 29.99 in 10.0 mi Calm Calm - N/A   Clear
7:54 PM 54.0 °F 43.0 °F 66% 29.99 in 10.0 mi Calm Calm - N/A   Clear
8:54 PM 48.0 °F 41.0 °F 77% 30.00 in 10.0 mi Calm Calm - N/A   Clear
9:54 PM 46.9 °F 42.1 °F 83% 30.00 in 10.0 mi Calm Calm - N/A   Clear
10:54 PM 44.1 °F 41.0 °F 89% 29.98 in 8.0 mi Calm Calm - N/A   Clear
11:54 PM 43.0 °F 41.0 °F 93% 29.96 in 7.0 mi Calm Calm - N/A   Clear